Location: *
(50.6089°N, 2.2719°E)
Time: 20:41:01
(UTC+00:00)

STARLINK-48 - Pass Details

Date: 18 October 2019
Orbit: 507 x 508 km, 53.0° (Epoch: 18 November)

Event Time Altitude Azimuth Distance (km) Brightness Sun altitude
Rises 18:47:22 0° 280° (W) 2,610 8.8 -18.8°
Reaches altitude 10° 18:49:35 10° 284° (WNW) 1,725 7.4 -19.1°
Maximum altitude 18:53:27 60° 5° (N) 583 3.7 -19.7°
Enters shadow 18:54:05 52° 49° (NE) 641 3.6 -19.8°
